Wind_Speed
5 5 5 4 3 3 3 2 2 2 3 3 3 3 3 2 2 2 2 3 2 2 2 2 2 2 2 2 2 2 2 3 3 3 3 3 3 3 3 3 2 2 3
5 5 5 4 4 4 3 2 2 2 3 3 3 2 2 1 1 1 1 1 1 1 1 1 1 1 2 1 1 1 2 1 2 2 2 3 4 3 3 2 2 3 3
6 5 5 5 5 4 3 3 2 3 4 4 3 2 2 2 1 0 0 0 0 0 0 0 1 1 1 1 1 1 1 1 1 1 2 3 4 3 3 2 3 2 3
5 5 6 6 5 4 4 4 3 3 3 3 3 3 2 2 1 0 1 1 1 1 1 1 1 1 1 1 1 1 1 1 1 1 1 2 3 3 2 2 3 3 2
6 6 6 7 6 6 5 5 4 4 3 3 3 3 1 1 1 0 1 1 1 1 2 2 2 2 1 1 1 1 1 1 2 2 2 3 3 3 2 2 2 2 2
7 7 7 7 7 7 7 7 6 5 4 4 2 1 1 1 1 1 1 1 2 2 2 1 1 1 1 0 0 1 1 1 1 2 1 2 3 3 3 3 3 3 3
7 7 7 7 7 7 8 7 5 4 4 4 3 2 1 1 0 1 1 2 2 2 2 2 2 2 1 1 1 1 2 2 2 2 2 2 2 2 3 3 3 3 3
7 7 7 7 7 7 8 7 5 5 5 4 3 2 2 2 1 1 1 2 1 2 1 1 1 1 2 2 2 2 2 2 3 3 3 3 2 2 3 3 3 3 3
8 7 7 7 7 7 7 6 6 5 5 4 3 2 2 2 2 1 1 1 1 1 1 1 2 2 2 2 2 2 3 3 4 4 4 3 3 2 3 3 3 3 3
9 8 8 7 7 7 7 6 6 6 5 4 3 3 2 2 2 1 1 1 1 1 1 2 2 2 2 2 1 2 3 4 4 4 4 4 3 3 3 4 4 3 3
10 9 8 7 7 7 7 6 6 6 5 4 4 4 3 3 3 2 1 1 2 2 2 2 2 2 1 1 1 2 3 4 4 5 4 4 4 4 3 4 3 4 4
10 9 9 8 7 7 7 6 6 6 6 6 6 5 5 4 4 4 3 3 2 2 2 2 2 2 1 0 1 2 3 4 3 4 4 4 4 4 3 3 3 3 3
11 10 10 9 8 7 7 7 7 7 7 6 7 7 6 5 5 5 4 4 3 2 3 2 1 2 2 2 1 1 2 3 2 2 3 3 3 4 4 4 4 4 4
10 10 10 9 9 8 8 8 8 8 7 8 8 8 7 6 6 6 5 4 3 3 3 3 2 2 2 2 1 1 2 2 2 2 3 3 3 3 3 3 4 4 5
9 9 9 9 8 8 8 8 8 8 7 7 8 8 8 7 6 6 5 4 4 3 3 2 2 2 1 1 1 1 1 0 1 1 2 2 3 3 3 4 5 5 5
10 9 9 8 8 8 7 7 7 7 7 7 7 7 6 6 6 6 5 4 4 4 3 2 2 1 1 1 1 1 1 1 1 1 1 2 3 3 3 4 5 5 6
10 10 9 9 8 7 7 7 8 7 7 7 7 7 7 6 7 8 6 4 3 3 3 2 2 2 1 1 1 1 1 2 2 1 2 3 3 4 3 4 5 5 6
10 10 9 8 8 7 7 7 8 8 7 7 7 7 7 7 7 7 7 6 5 4 4 4 3 2 2 2 2 1 1 2 3 3 3 3 4 4 5 5 5 5 6
10 9 9 8 7 7 7 7 7 8 7 7 7 6 7 7 7 7 6 6 6 6 6 5 3 3 3 3 3 3 2 3 3 4 4 4 5 5 6 6 5 5 6
9 9 9 8 7 7 7 7 7 7 8 7 7 6 6 7 7 7 6 6 6 6 6 6 5 4 4 4 4 4 4 4 5 5 6 6 6 7 7 6 6 7 7
8 8 8 8 8 7 7 7 7 7 7 7 7 6 7 7 8 7 7 6 6 5 5 6 6 5 5 5 5 5 5 5 6 6 7 7 7 7 7 7 7 8 8
7 7 7 7 7 7 7 7 7 7 7 7 7 7 7 7 7 7 7 6 6 6 6 6 6 5 5 6 6 5 5 6 7 7 7 7 7 8 8 8 8 9 10
6 6 7 7 7 7 7 7 7 7 7 7 7 8 8 7 7 7 7 6 6 6 6 6 6 5 6 7 7 6 6 7 8 8 9 8 8 9 9 10 10 10 10
6 7 7 7 7 7 7 7 7 7 7 7 8 8 8 7 7 6 6 7 6 6 7 7 7 7 7 8 8 8 8 9 9 9 9 9 10 10 11 11 11 12 12
7 7 8 8 7 7 7 8 8 8 7 7 7 8 8 8 7 7 7 7 7 7 8 8 8 8 9 10 10 9 9 10 10 11 11 11 12 12 13 13 13 13 14
8 8 8 8 8 8 8 8 9 8 7 7 7 8 8 8 8 7 7 8 8 9 9 9 9 10 10 11 11 11 11 11 11 11 12 11 12 13 13 14 14 14 14
Wind_Direction
80 75 74 65 68 75 69 77 123 119 114 124 136 122 115 98 85 82 79 76 70 67 91 109 110 121 120 108 107 115 135 152 162 152 154 157 162 175 179 189 192 193 183
76 68 66 67 67 64 64 67 111 148 124 125 132 114 100 96 91 79 72 65 61 50 103 130 156 155 143 155 164 163 181 192 186 188 181 175 173 178 183 197 206 202 207
72 66 68 66 65 61 59 66 108 143 139 138 134 114 96 94 102 224 1 355 20 8 288 267 239 204 130 194 210 198 211 224 195 211 193 187 182 182 189 208 220 221 227
65 67 72 67 57 49 61 80 96 116 134 128 132 127 109 98 96 52 317 280 263 285 286 285 280 236 227 285 262 255 209 253 249 251 234 208 207 204 205 210 223 232 232
67 72 73 68 59 61 72 89 98 93 101 110 113 125 123 129 111 50 308 287 288 302 305 313 284 260 266 310 286 260 266 266 277 284 265 239 232 223 216 214 224 231 221
65 70 72 69 61 67 79 90 99 97 97 93 84 84 85 114 110 328 308 317 304 301 319 330 308 310 322 346 309 251 271 276 254 281 252 239 235 225 226 236 237 244 236
63 66 67 67 67 75 79 85 93 94 96 97 81 82 78 79 22 298 321 327 323 313 309 333 317 303 286 269 243 250 275 271 256 267 260 247 232 226 229 247 254 254 252
66 66 67 69 72 78 86 93 93 82 82 82 73 75 60 39 357 322 337 326 334 338 318 315 340 328 272 278 273 265 272 263 272 273 266 260 257 249 238 245 260 267 269
66 68 70 73 71 71 75 81 80 78 75 71 64 47 33 17 1 332 340 333 345 347 305 328 333 333 306 269 261 255 243 262 268 269 264 263 255 253 249 253 260 265 264
65 66 65 67 70 73 76 79 80 77 72 62 41 23 27 29 21 3 339 349 337 338 319 307 312 322 281 264 268 262 249 261 263 261 258 253 254 257 258 256 253 259 253
60 63 61 63 71 75 75 76 75 68 61 47 35 34 32 31 25 22 350 356 356 337 329 317 328 326 290 253 264 264 262 265 266 268 259 254 254 252 251 253 257 258 250
57 59 61 65 70 70 70 74 65 62 53 42 36 39 33 33 38 30 14 8 3 348 336 314 322 334 337 314 288 271 266 274 270 263 255 260 253 250 248 250 257 251 244
58 61 63 61 62 63 64 64 58 55 51 43 37 34 37 40 40 37 22 7 7 11 3 356 16 37 34 17 327 279 273 284 272 242 246 251 248 245 249 251 256 247 250
61 62 60 58 59 64 69 64 56 52 48 46 42 34 32 34 33 35 33 26 29 24 18 12 9 34 44 28 346 289 287 285 258 256 249 243 240 245 259 257 257 252 257
59 57 53 55 59 64 65 59 51 45 44 43 37 33 30 32 33 31 30 30 33 30 27 14 20 25 8 1 348 358 11 299 319 314 254 250 257 259 267 270 267 264 264
55 55 52 54 60 64 58 52 46 41 36 31 29 29 29 26 25 23 21 24 25 33 23 7 344 338 325 325 347 358 354 276 356 342 301 282 287 291 290 278 276 272 267
52 53 55 57 61 59 54 47 40 37 33 30 27 23 22 18 16 20 29 32 38 31 12 4 359 359 326 310 341 358 17 21 9 335 313 303 297 298 296 286 279 279 277
52 52 51 51 52 48 43 38 33 29 24 22 21 19 20 16 14 18 22 25 24 13 3 3 3 357 347 344 344 345 350 351 342 333 316 303 297 293 294 290 281 281 284
49 50 47 45 42 37 34 31 27 21 19 15 13 11 9 9 10 9 16 13 13 8 8 6 6 2 348 335 318 310 319 328 325 322 316 300 294 298 299 293 286 285 285
43 42 39 37 34 30 26 24 21 17 17 15 11 6 2 5 4 9 10 6 4 6 8 7 6 0 346 330 319 311 317 322 313 309 306 303 301 302 300 292 288 288 285
37 33 29 27 28 23 18 15 13 11 11 12 10 7 6 6 6 9 9 7 4 3 2 2 0 353 347 340 332 320 311 313 309 307 304 301 296 297 296 294 292 293 290
23 22 21 19 17 14 13 13 13 11 10 9 8 6 5 5 5 4 1 3 0 357 354 352 349 345 340 337 328 320 314 306 306 303 302 298 294 293 297 294 291 296 296
4 4 6 7 8 8 6 4 6 7 5 358 353 354 355 355 2 2 357 350 346 346 343 340 337 331 330 327 324 314 309 306 306 302 304 299 295 294 296 294 289 291 292
350 349 353 353 355 358 359 1 360 354 350 348 349 350 353 353 353 353 349 339 332 333 336 334 329 322 318 314 309 307 307 304 303 302 299 297 296 295 294 291 286 286 290
340 340 342 342 343 345 346 345 348 346 344 342 344 345 345 342 342 339 336 333 332 327 326 325 323 317 314 310 304 301 304 303 299 298 295 296 300 301 296 294 291 290 290
327 328 328 331 334 336 335 335 341 343 341 338 338 338 336 333 331 327 325 324 323 319 319 322 319 315 309 307 306 304 302 303 300 299 298 301 302 303 303 299 295 291 289
Height
5886 5886 5886 5885 5885 5885 5884 5885 5885 5886 5886 5887 5887 5888 5889 5889 5889 5890 5890 5890 5890 5890 5890 5889 5889 5889 5889 5889 5889 5889 5889 5889 5889 5889 5889 5889 5889 5889 5889 5889 5889 5889 5889
5886 5886 5886 5885 5884 5884 5884 5884 5884 5886 5886 5887 5888 5889 5889 5890 5890 5890 5890 5890 5890 5890 5890 5890 5890 5890 5890 5889 5889 5889 5889 5889 5889 5889 5889 5889 5888 5888 5888 5888 5888 5888 5888
5887 5886 5886 5885 5884 5883 5882 5883 5884 5885 5886 5887 5888 5889 5890 5890 5890 5890 5890 5890 5890 5890 5890 5890 5890 5890 5890 5889 5889 5890 5889 5889 5889 5888 5888 5888 5888 5888 5888 5888 5888 5888 5888
5887 5887 5886 5885 5884 5882 5881 5881 5883 5885 5887 5888 5888 5889 5890 5890 5890 5891 5891 5890 5890 5890 5890 5890 5890 5890 5890 5889 5889 5889 5889 5888 5888 5888 5888 5888 5888 5888 5888 5888 5888 5888 5887
5888 5888 5887 5886 5884 5881 5880 5881 5883 5885 5887 5888 5889 5890 5890 5890 5891 5891 5891 5891 5891 5890 5890 5890 5890 5890 5889 5889 5889 5889 5888 5888 5888 5888 5888 5888 5887 5887 5887 5887 5887 5887 5886
5889 5889 5888 5887 5885 5883 5881 5882 5884 5886 5888 5889 5890 5890 5891 5891 5891 5891 5891 5891 5891 5891 5890 5890 5890 5889 5889 5889 5889 5888 5888 5888 5887 5887 5887 5887 5887 5887 5887 5886 5886 5886 5886
5890 5890 5889 5889 5887 5885 5884 5885 5886 5888 5889 5890 5891 5891 5891 5891 5891 5891 5891 5891 5891 5890 5890 5890 5889 5889 5889 5888 5888 5888 5888 5887 5887 5887 5887 5887 5887 5886 5886 5886 5886 5886 5885
5892 5891 5891 5890 5890 5889 5888 5888 5889 5890 5891 5891 5891 5891 5891 5891 5891 5891 5890 5890 5890 5890 5889 5889 5889 5888 5888 5887 5887 5887 5887 5887 5887 5886 5886 5886 5886 5886 5885 5885 5885 5885 5885
5892 5893 5892 5892 5892 5892 5892 5891 5891 5891 5892 5892 5892 5891 5891 5891 5890 5890 5890 5890 5890 5889 5889 5889 5888 5888 5887 5887 5887 5886 5886 5886 5886 5886 5886 5886 5886 5885 5885 5884 5884 5884 5884
5894 5894 5894 5893 5893 5893 5893 5893 5893 5893 5893 5892 5892 5892 5891 5890 5889 5889 5889 5890 5889 5889 5889 5888 5888 5887 5887 5886 5886 5886 5885 5885 5885 5885 5885 5885 5885 5884 5884 5884 5883 5883 5883
5896 5895 5895 5895 5894 5894 5894 5894 5894 5894 5894 5893 5893 5892 5891 5890 5889 5888 5889 5889 5889 5888 5888 5888 5887 5886 5886 5886 5885 5885 5885 5885 5884 5884 5884 5883 5883 5883 5883 5882 5882 5881 5881
5897 5897 5897 5896 5896 5896 5896 5895 5895 5895 5894 5894 5893 5892 5891 5890 5889 5888 5888 5888 5888 5888 5888 5887 5886 5886 5885 5885 5885 5885 5884 5884 5883 5883 5883 5883 5883 5882 5882 5882 5881 5880 5880
5899 5899 5898 5898 5897 5897 5897 5897 5896 5896 5895 5895 5894 5893 5892 5891 5890 5889 5889 5888 5888 5888 5887 5887 5886 5885 5885 5884 5884 5884 5884 5883 5883 5882 5882 5882 5881 5881 5881 5880 5880 5879 5879
5900 5900 5900 5899 5899 5898 5898 5898 5897 5897 5896 5895 5895 5894 5892 5892 5891 5890 5889 5888 5888 5887 5887 5886 5885 5885 5884 5884 5884 5883 5883 5882 5882 5881 5881 5881 5880 5880 5880 5879 5879 5878 5877
5901 5901 5901 5900 5900 5900 5899 5899 5898 5897 5897 5896 5895 5894 5893 5892 5891 5890 5889 5888 5888 5887 5886 5886 5885 5884 5884 5884 5883 5883 5882 5882 5880 5880 5880 5879 5879 5879 5878 5878 5877 5877 5876
5902 5902 5902 5901 5901 5901 5900 5900 5899 5898 5897 5897 5896 5895 5894 5893 5891 5890 5889 5888 5887 5886 5886 5885 5884 5884 5883 5883 5883 5882 5881 5881 5880 5879 5879 5879 5878 5878 5877 5876 5876 5875 5874
5903 5903 5902 5902 5901 5901 5901 5900 5899 5899 5898 5897 5896 5895 5893 5892 5891 5890 5889 5888 5887 5886 5885 5884 5883 5882 5882 5882 5881 5881 5880 5880 5879 5879 5878 5878 5877 5876 5875 5875 5874 5873 5872
5905 5904 5903 5902 5902 5901 5901 5901 5900 5899 5898 5897 5896 5894 5893 5892 5891 5890 5889 5888 5887 5886 5885 5883 5882 5882 5881 5881 5881 5880 5880 5879 5879 5878 5878 5877 5876 5875 5874 5873 5872 5871 5870
5906 5905 5904 5903 5903 5902 5902 5901 5900 5899 5898 5897 5896 5894 5893 5892 5891 5890 5889 5888 5887 5886 5884 5883 5882 5881 5881 5880 5880 5879 5879 5878 5878 5877 5876 5875 5874 5874 5872 5871 5870 5869 5868
5907 5906 5905 5904 5904 5903 5902 5901 5900 5899 5898 5897 5895 5894 5893 5892 5891 5889 5888 5887 5886 5885 5884 5883 5882 5881 5880 5880 5879 5878 5878 5877 5876 5875 5875 5874 5872 5871 5871 5869 5868 5867 5866
5907 5907 5906 5905 5904 5903 5902 5901 5900 5899 5898 5896 5895 5894 5892 5891 5890 5889 5888 5887 5886 5885 5883 5883 5881 5881 5880 5879 5878 5877 5876 5876 5875 5874 5873 5872 5870 5869 5868 5867 5866 5864 5863
5907 5907 5906 5905 5904 5903 5902 5901 5899 5898 5897 5896 5894 5893 5892 5891 5889 5888 5887 5886 5885 5884 5883 5882 5880 5880 5879 5878 5877 5876 5875 5875 5873 5872 5871 5869 5868 5866 5865 5864 5863 5862 5860
5908 5907 5906 5905 5904 5903 5901 5900 5899 5898 5896 5895 5894 5892 5891 5890 5889 5887 5886 5885 5884 5883 5882 5881 5880 5879 5878 5877 5875 5875 5873 5872 5871 5870 5868 5867 5865 5863 5862 5861 5860 5859 5858
5907 5906 5905 5904 5903 5902 5901 5899 5898 5897 5896 5895 5893 5892 5890 5889 5888 5886 5885 5884 5883 5882 5881 5879 5878 5877 5876 5875 5874 5872 5871 5870 5868 5867 5866 5864 5862 5861 5859 5858 5857 5856 5855
5906 5905 5904 5903 5902 5901 5900 5898 5897 5896 5895 5893 5892 5891 5889 5888 5887 5885 5884 5883 5882 5880 5879 5878 5877 5875 5874 5872 5871 5869 5868 5867 5865 5864 5863 5861 5860 5857 5856 5854 5853 5852 5851
5905 5904 5903 5902 5900 5899 5898 5897 5896 5894 5893 5892 5891 5890 5888 5887 5885 5884 5883 5882 5880 5878 5877 5875 5874 5873 5871 5870 5868 5867 5865 5864 5862 5861 5859 5857 5856 5854 5852 5851 5849 5847 5846